ECMWFFLT2_500_spd_024.txt.gz
Wind_Speed
51 51 52 53 53 55 56 58 59 58 58 59 58 58 59 60 60 60 60 60 61 61 61 61 61 60 59 60 60 59 58 58 59 60 59 59 59 59 58 57 57 54 52 52 52 55 57 56 57 56 56 56
51 51 52 52 53 53 54 55 56 56 56 56 57 56 56 58 60 60 59 59 59 60 60 61 61 61 61 60 60 60 60 60 60 61 61 60 60 60 59 58 59 57 54 52 52 55 57 56 57 57 57 57
52 52 53 53 54 55 55 55 55 56 56 56 56 56 55 55 56 58 58 58 58 58 59 59 59 60 61 60 59 60 60 60 61 61 62 61 61 61 61 60 61 60 56 54 53 54 58 58 57 58 57 57
54 54 54 54 55 55 55 56 56 57 57 58 57 57 56 56 56 56 56 57 57 57 57 58 58 58 59 59 59 60 60 60 60 62 62 62 62 62 62 62 62 62 59 56 55 55 58 59 58 58 58 58
56 56 56 56 56 56 56 56 56 57 58 58 59 59 58 58 57 57 56 56 57 57 57 57 57 57 57 57 58 59 59 59 59 60 62 63 63 63 63 63 63 63 62 57 56 56 58 60 60 59 59 59
58 58 58 59 58 59 58 59 58 58 58 59 60 60 60 60 59 58 57 57 57 57 57 57 56 57 57 56 57 57 58 59 59 59 60 62 63 64 64 64 64 64 64 59 56 57 58 61 62 61 61 60
61 61 61 61 61 61 61 61 61 61 61 61 61 61 61 62 61 60 59 58 58 58 58 58 57 57 57 57 57 57 58 59 58 58 59 61 62 63 64 64 64 64 65 61 57 58 59 61 63 63 63 62
62 62 62 62 62 62 62 63 63 63 63 63 63 63 63 63 63 63 62 61 60 59 59 59 59 58 58 58 59 58 58 59 59 58 59 61 62 62 63 64 65 65 66 63 59 59 60 61 63 64 64 64
61 62 62 62 62 62 62 63 63 64 64 64 64 65 65 65 65 65 65 64 63 63 62 61 60 59 59 59 60 59 59 59 59 59 59 60 62 62 62 63 64 65 66 64 60 60 62 62 63 64 65 65
61 61 62 62 62 62 62 63 63 64 64 64 65 65 66 66 66 67 67 67 66 66 65 64 63 62 62 61 61 60 60 60 60 61 60 60 62 63 62 63 63 64 64 63 60 61 64 64 65 65 65 65
62 62 63 63 63 63 64 64 64 64 65 65 65 65 66 67 67 67 68 68 68 68 68 68 67 65 65 64 63 62 61 61 61 62 62 62 62 62 63 63 63 63 63 62 60 61 65 66 67 66 66 66
64 64 65 65 65 66 65 66 66 66 66 66 67 67 67 67 68 68 68 69 69 69 69 70 70 69 68 68 66 65 64 64 63 63 64 63 63 63 63 63 64 63 63 62 60 61 64 67 68 68 67 67
67 66 67 67 67 68 68 68 68 68 68 68 68 68 68 68 68 69 68 69 70 70 70 71 71 71 71 70 69 68 67 66 65 65 65 65 64 63 63 64 64 64 64 62 61 61 64 66 68 68 68 67
68 68 68 68 68 69 69 70 70 70 70 70 70 70 70 70 70 70 70 70 70 71 71 71 71 72 72 72 72 71 69 68 68 67 66 66 66 65 64 64 65 65 64 63 63 62 63 66 68 69 69 69
70 70 70 70 70 70 70 71 71 71 71 71 71 72 72 72 72 72 72 72 71 71 72 72 72 72 72 73 73 73 72 71 70 69 69 68 67 67 66 65 65 66 65 65 64 64 64 65 67 68 69 70
71 71 72 72 72 72 72 72 73 73 73 73 73 74 74 74 74 74 75 75 75 74 74 74 74 74 74 74 74 75 75 74 73 72 71 70 69 68 68 68 66 66 66 65 65 65 65 66 67 68 69 70
72 72 73 74 74 74 74 75 75 76 76 76 76 76 76 76 76 77 77 78 78 77 77 76 76 76 76 76 76 76 76 76 76 75 73 73 72 71 70 70 69 68 67 67 66 66 67 67 67 67 69 70
71 73 74 75 76 76 76 77 77 78 79 79 79 79 79 79 79 79 79 80 80 80 80 80 79 79 79 79 79 79 78 78 78 78 76 75 75 73 72 71 71 71 70 68 68 68 68 68 68 69 69 69
71 73 75 76 77 78 79 79 80 80 80 81 81 82 82 82 82 81 82 82 83 82 82 82 82 82 82 82 82 82 81 81 80 80 78 77 77 76 75 73 73 72 72 71 69 69 69 68 69 70 70 70
73 74 75 77 79 80 81 82 82 83 83 83 83 83 84 84 84 84 84 84 84 84 84 84 84 84 84 84 84 84 84 83 83 82 81 80 79 78 77 76 75 74 74 74 72 71 70 69 70 71 71 71
77 78 79 79 81 82 83 84 84 85 85 85 86 86 86 86 87 86 86 86 86 86 86 85 85 85 85 85 85 85 85 85 85 84 84 83 82 81 79 79 79 77 76 76 75 74 72 71 71 72 72 72
80 81 82 83 84 85 85 86 87 87 88 88 88 89 89 89 89 89 89 88 88 88 88 87 87 86 86 86 86 86 86 86 87 86 86 85 85 84 82 80 81 80 79 78 78 77 76 74 73 73 73 74
84 85 86 86 87 87 87 87 88 88 88 88 89 90 91 91 92 92 92 91 91 91 90 90 90 90 89 89 88 87 87 87 87 87 87 87 86 86 85 83 82 82 82 81 80 80 79 77 76 74 74 75
86 86 87 87 88 88 89 89 89 89 89 89 89 90 91 92 93 94 94 94 94 94 93 92 92 92 92 92 92 91 90 89 88 88 88 88 88 87 86 86 85 85 84 84 83 83 82 80 79 77 75 75
87 88 88 89 89 90 91 91 91 92 92 91 91 91 91 92 94 95 96 96 97 97 96 95 94 94 94 94 95 95 94 94 92 91 90 89 89 89 88 87 87 87 87 86 85 85 85 84 83 80 77 76
88 89 90 91 92 93 93 93 94 95 95 95 94 93 93 94 95 96 97 97 98 99 99 99 98 97 96 96 96 96 97 97 97 96 94 92 91 91 90 89 88 89 89 88 87 87 87 87 87 85 80 78
89 90 91 93 94 95 95 95 96 97 97 97 97 97 96 97 97 98 98 99 100 100 101 101 101 101 101 100 99 98 98 98 100 100 100 98 96 94 93 92 91 91 91 91 89 89 89 89 90 89 85 82
92 92 93 94 96 97 98 98 98 99 99 100 100 99 99 100 101 101 101 101 102 102 102 102 103 103 104 104 103 102 100 99 100 101 102 103 102 99 97 95 94 93 93 92 92 92 92 91 92 92 88 85
95 95 96 97 98 99 100 100 101 102 102 102 102 101 102 103 105 105 105 104 104 105 105 104 105 105 106 106 106 106 104 103 102 102 102 103 104 105 103 100 98 97 96 95 94 94 94 93 93 93 90 88
96 97 97 98 100 101 102 102 102 103 104 104 104 103 104 106 108 108 108 108 108 108 108 108 108 108 108 108 108 108 108 108 107 106 105 103 103 105 106 106 103 101 99 98 97 96 96 95 94 94 92 91
95 96 96 97 98 100 101 103 104 104 105 105 105 104 105 107 109 110 111 110 111 111 111 111 111 111 111 111 110 110 110 111 111 111 110 108 106 105 106 108 108 106 104 102 100 99 98 97 96 95 94 93

ECMWFFLT2_500_spd_030.txt.gz
Wind_Speed
59 60 61 62 62 63 63 63 64 64 64 64 64 64 64 66 67 67 68 68 67 67 67 66 66 65 65 65 65 64 64 64 65 66 66 66 65 65 65 64 64 64 62 60 58 56 58 60 60 60 59 58
57 58 59 60 61 61 61 61 61 62 63 63 64 64 64 65 67 68 68 69 68 69 69 68 68 68 67 67 67 66 66 66 66 67 69 69 68 67 66 66 66 65 63 62 60 58 58 60 61 61 61 60
56 56 57 58 59 59 60 60 60 60 60 61 62 62 62 64 66 67 68 69 69 70 70 70 69 69 68 68 68 68 68 68 68 68 69 70 70 69 69 68 68 67 65 64 63 60 58 59 61 62 63 62
57 57 57 57 58 58 59 59 60 60 59 59 60 60 60 60 62 65 66 68 69 70 71 70 69 69 68 68 68 68 69 70 70 70 70 71 71 71 71 70 70 70 69 67 65 62 60 60 61 63 63 63
60 59 58 58 58 59 59 60 60 60 60 60 60 60 60 59 60 61 62 66 68 69 70 70 69 68 68 67 68 68 69 70 70 71 71 71 72 72 72 72 72 72 71 70 68 66 63 61 61 63 63 64
63 62 61 60 60 60 60 61 61 62 62 62 62 62 62 61 61 61 61 64 66 67 68 69 68 67 66 67 67 68 68 69 70 71 71 72 72 72 72 73 73 74 74 73 71 69 67 64 62 62 64 64
66 65 64 63 62 62 61 62 62 63 64 64 64 64 64 64 64 63 63 65 66 66 67 68 68 66 65 66 67 67 67 68 69 70 71 72 72 72 72 72 73 73 75 75 74 73 70 66 64 63 63 64
68 67 67 66 64 64 63 63 63 64 65 65 66 66 66 65 65 65 65 66 67 66 67 67 68 66 66 66 66 66 66 67 67 68 69 71 72 73 73 72 72 72 74 75 75 75 73 70 67 64 64 65
68 68 68 67 66 65 64 64 63 64 65 66 67 67 67 67 67 67 67 68 68 68 67 68 68 68 67 66 67 67 66 66 66 67 68 69 70 71 73 73 72 71 72 74 75 75 75 72 69 66 65 65
68 68 68 68 67 67 66 65 64 64 65 66 67 67 68 69 69 69 69 69 70 70 69 69 70 69 69 68 68 67 67 67 67 67 67 68 69 70 71 72 72 72 72 72 73 74 74 73 71 68 66 66
69 69 69 69 69 69 68 67 66 66 66 66 66 67 68 69 70 70 71 71 71 71 71 71 71 71 71 70 69 69 68 68 68 68 67 68 69 69 70 71 72 72 72 71 72 72 72 73 72 70 68 66
70 70 70 70 70 70 70 69 69 68 68 68 68 68 68 69 70 71 72 72 73 73 73 73 73 73 73 72 71 71 70 70 70 69 69 68 68 69 69 70 71 72 72 72 72 71 71 72 71 70 69 67
71 71 71 71 71 71 71 71 71 71 71 70 70 69 70 70 70 71 72 73 74 74 74 74 74 74 74 74 74 74 73 72 72 71 70 70 69 69 69 70 71 71 72 72 72 71 71 71 71 70 69 67
73 73 73 73 72 72 72 72 73 73 73 73 73 72 72 72 72 72 73 73 74 74 75 75 75 75 75 75 76 76 75 74 74 73 73 72 71 70 70 70 71 72 72 72 71 71 71 71 71 70 69 68
74 74 74 74 74 74 74 74 74 74 75 75 75 75 75 74 74 74 74 74 74 75 75 76 76 76 76 76 77 77 77 76 76 76 75 74 73 72 72 71 71 72 72 72 72 71 71 71 71 71 69 69
75 75 76 76 76 76 76 76 76 76 76 76 77 77 78 78 78 77 77 76 76 77 77 77 77 77 77 77 77 78 77 77 77 77 77 75 74 74 74 73 73 73 73 73 72 72 72 72 72 71 69 69
75 76 76 77 77 78 78 78 78 78 78 78 79 79 80 80 80 80 80 79 79 79 79 79 79 79 78 78 78 78 78 78 78 78 78 77 76 75 75 75 75 74 74 74 73 73 72 72 72 72 70 69
72 73 75 76 77 78 79 79 80 80 80 80 81 81 82 83 83 83 83 82 82 82 82 81 81 81 81 80 79 79 79 78 78 79 79 78 77 77 77 76 76 76 76 75 75 74 74 73 72 72 71 70
67 68 70 73 75 77 78 79 80 81 81 82 82 83 84 85 85 85 85 85 85 85 84 84 84 84 84 83 82 82 81 80 80 80 79 79 78 78 78 78 78 78 78 77 77 76 75 74 74 73 72 71
66 66 67 69 72 74 76 78 79 80 81 82 83 84 85 85 86 87 87 87 87 87 87 87 87 87 87 86 86 85 84 83 83 82 81 81 80 79 79 79 79 79 79 79 78 78 77 76 76 74 73 72
68 68 68 69 70 72 73 75 77 79 80 81 82 83 84 86 86 87 88 88 89 89 89 89 89 89 89 89 89 88 87 87 86 85 84 83 82 81 80 80 79 80 80 80 79 79 78 78 77 76 75 74
68 69 69 69 69 71 72 74 75 77 79 81 83 84 85 86 87 88 88 89 89 90 90 90 90 90 90 90 90 90 90 89 89 88 87 86 85 84 83 82 81 80 81 82 81 80 80 79 78 78 77 76
68 69 70 71 70 71 72 73 75 76 78 80 83 84 86 87 88 89 89 90 91 91 91 91 92 92 92 91 91 92 92 91 91 91 90 89 88 87 86 85 84 83 82 83 83 82 81 80 80 79 79 78
69 70 71 72 73 73 74 75 76 77 78 80 82 84 86 88 89 90 91 91 92 92 92 93 93 93 93 93 93 93 93 93 93 92 92 91 91 90 89 88 87 86 85 84 84 84 83 82 81 80 80 80
73 74 74 74 75 76 78 79 80 80 80 81 82 84 86 88 90 91 92 93 93 94 94 94 95 95 95 95 95 94 94 94 94 94 94 93 93 92 91 90 89 89 87 86 86 85 85 85 84 83 82 81
78 78 79 79 79 79 80 81 82 83 83 83 84 85 86 87 90 92 93 94 95 95 95 95 96 97 97 98 97 97 96 96 96 95 95 95 94 94 93 92 91 91 89 88 88 87 87 86 86 85 84 83
81 81 83 84 84 84 84 84 84 85 86 87 88 88 89 89 90 91 93 95 96 97 97 96 96 97 99 99 99 99 99 98 98 97 97 97 96 95 95 94 93 92 91 90 89 89 88 87 87 87 86 85
86 87 88 89 89 88 88 88 88 89 89 90 91 92 92 93 93 93 94 95 96 98 98 98 98 99 100 100 101 101 101 101 100 100 99 99 98 97 97 96 95 94 93 92 91 90 89 89 89 88 88 88
92 93 94 95 94 93 92 91 91 92 93 95 96 96 97 97 97 97 96 96 97 98 99 99 100 100 101 102 102 102 102 103 103 102 102 101 100 99 99 98 97 96 95 94 93 93 92 91 91 90 90 90
94 95 96 98 98 98 98 97 96 95 95 97 99 100 101 101 101 101 100 99 99 100 101 101 101 102 102 103 103 104 104 104 104 104 104 104 103 102 101 101 100 99 98 96 95 95 94 93 93 92 92 91
94 95 97 99 100 100 101 102 102 102 101 101 101 101 102 103 104 104 104 103 101 101 102 103 103 104 105 105 105 105 105 105 106 106 106 106 105 105 104 104 103 101 100 99 98 97 96 96 95 94 94 93

ECMWFFLT2_500_spd_033.txt.gz
Wind_Speed
64 65 66 67 67 67 68 68 69 69 69 70 69 68 66 65 66 65 65 66 67 66 66 66 66 66 66 65 65 65 66 66 67 67 66 66 64 64 64 63 63 64 65 64 63 61 62 63 62 62 61 61
64 65 65 66 67 67 68 68 68 68 69 69 69 68 66 64 64 63 63 64 64 65 65 66 67 67 67 67 67 66 67 67 68 68 68 67 66 66 65 65 64 64 65 64 64 62 62 63 64 63 62 62
65 65 65 65 65 66 66 67 67 68 68 68 68 68 67 66 64 63 62 62 62 62 61 62 66 67 67 67 68 68 69 68 68 69 68 68 68 68 67 67 66 66 66 65 64 63 62 63 64 64 63 62
66 65 65 66 65 65 65 66 66 66 66 67 67 67 67 66 65 64 63 62 61 62 62 62 64 67 67 67 69 70 70 70 69 69 69 69 69 69 69 68 68 68 68 67 66 64 63 63 64 65 64 63
67 67 66 66 66 66 66 66 65 65 65 65 65 65 65 65 66 65 64 64 63 62 64 65 64 66 66 67 68 70 71 72 70 70 70 70 70 70 70 70 70 70 69 69 68 66 65 64 64 65 65 65
68 68 67 67 66 66 67 67 67 66 66 66 65 65 65 64 65 65 65 65 64 63 63 64 64 64 64 64 66 69 72 73 70 70 70 71 71 71 71 71 72 71 71 71 70 69 68 67 65 65 66 66
70 69 69 68 67 67 67 67 68 68 67 67 67 66 66 65 65 65 65 65 65 64 63 63 63 62 60 59 61 64 70 73 71 69 70 71 71 71 72 72 73 73 73 72 72 71 71 70 68 66 66 67
71 71 70 70 69 68 68 68 68 68 69 69 69 69 68 67 66 66 66 66 65 65 65 64 63 62 59 58 59 61 65 69 70 69 68 69 70 70 71 71 73 74 74 74 74 74 73 72 71 69 67 67
73 72 72 71 71 70 69 68 68 69 69 69 70 70 70 70 69 68 68 67 67 66 66 65 64 64 61 59 61 64 66 67 68 68 67 67 68 68 70 70 72 73 74 74 75 76 75 73 72 71 69 68
74 74 73 73 72 72 71 70 69 69 69 70 70 70 71 71 72 71 71 70 69 69 68 67 66 66 64 61 64 68 69 68 67 68 67 66 67 67 68 69 70 72 74 74 75 76 76 75 74 72 71 69
75 75 75 74 74 74 73 72 71 70 70 70 70 70 70 71 72 73 73 72 72 71 70 70 68 68 67 64 67 70 69 69 68 68 69 67 67 66 67 68 69 71 73 74 74 75 75 75 75 73 72 71
76 76 76 76 76 75 75 74 74 73 72 71 71 70 70 71 72 73 74 74 74 74 73 73 72 71 70 69 72 73 72 71 70 69 71 70 68 67 67 68 69 70 71 73 74 75 74 74 74 74 73 72
76 77 77 77 77 77 77 76 76 75 75 74 73 72 72 71 72 73 73 74 74 75 75 75 75 74 74 73 74 75 75 74 72 72 72 73 71 70 69 69 69 70 70 71 73 74 74 73 72 73 73 73
74 76 77 78 78 78 78 78 78 78 77 77 76 75 74 74 73 73 74 74 74 75 76 77 77 76 76 76 76 77 77 76 75 75 74 73 73 73 72 71 70 70 70 71 72 73 73 73 72 71 72 72
73 74 76 77 79 79 79 79 79 79 79 79 78 77 77 76 76 76 75 75 75 75 76 77 78 78 78 78 78 78 78 78 78 78 77 75 74 75 75 74 72 70 70 71 71 72 73 72 71 71 70 71
74 74 75 76 78 79 80 81 81 81 81 80 80 79 78 78 78 78 78 78 77 77 77 77 78 79 79 79 80 80 80 80 80 80 80 78 77 76 76 76 75 73 71 71 71 72 72 72 71 71 70 69
75 75 75 75 77 78 80 81 82 83 83 82 82 81 80 80 80 79 80 80 80 79 79 79 79 79 80 81 81 81 81 81 82 82 81 81 80 78 78 77 77 77 75 73 72 71 72 72 72 71 70 69
73 74 74 75 76 77 79 81 83 84 84 84 84 83 83 82 81 81 81 81 81 81 81 81 81 81 81 82 82 82 82 82 83 83 83 83 82 81 80 79 79 79 78 76 75 74 73 72 72 72 71 71
69 70 70 71 73 75 77 79 81 83 85 85 86 85 85 84 84 83 82 82 82 82 83 83 83 83 83 83 83 83 83 83 84 84 84 84 83 83 82 81 81 81 80 79 79 77 76 74 73 72 72 72
67 67 67 67 68 69 72 74 77 79 81 83 85 86 86 86 86 85 84 84 84 84 84 84 84 85 85 85 84 84 84 84 84 85 85 84 84 84 83 83 82 82 82 81 81 80 79 77 75 74 73 73
67 67 66 65 65 65 66 68 70 72 75 77 80 83 86 87 87 87 86 86 86 85 85 85 86 86 86 86 86 86 86 86 85 86 85 85 85 85 84 84 83 83 83 82 82 82 80 78 77 76 75 74
67 67 67 66 66 65 64 64 66 69 71 74 76 78 81 84 86 87 88 88 87 87 87 87 87 87 88 88 88 87 87 87 87 87 87 86 86 85 85 84 84 84 84 83 83 82 81 80 78 78 77 76
70 70 70 69 68 67 66 65 66 69 72 74 75 76 77 79 82 85 87 88 88 88 89 89 89 89 89 89 89 89 89 89 89 89 88 88 87 87 86 85 84 85 85 84 83 83 82 81 80 78 78 78
76 75 74 73 72 71 70 67 66 70 73 75 76 76 77 78 80 83 84 86 87 88 89 90 90 91 91 91 91 91 91 91 91 91 90 90 89 89 88 87 86 86 86 85 84 84 83 82 81 80 79 79
78 78 77 77 76 75 74 72 70 71 74 76 77 78 78 79 80 82 83 84 85 87 89 90 91 92 92 92 92 93 93 93 93 93 92 92 92 91 90 89 89 88 88 87 86 85 84 84 82 81 80 80
80 80 80 79 79 78 77 76 76 76 76 77 79 80 81 81 80 81 83 85 85 86 88 90 92 92 93 93 93 94 95 95 95 95 94 94 94 93 93 92 91 90 90 89 88 87 86 85 84 82 81 81
79 82 83 83 82 82 81 80 80 81 81 81 82 83 84 84 83 82 84 86 87 88 88 90 92 93 94 94 94 95 96 96 97 97 97 96 96 95 95 94 94 93 92 91 90 90 89 88 86 85 83 82
71 77 82 85 86 86 85 84 84 85 85 86 87 88 88 88 87 86 86 87 88 90 90 90 92 94 95 96 96 97 97 97 98 98 98 98 98 97 97 96 96 95 95 94 93 92 91 90 89 88 86 85
56 62 69 77 84 88 90 89 88 88 89 91 92 93 93 93 92 91 91 90 91 92 92 92 93 94 95 97 98 98 99 99 99 100 100 100 99 99 99 98 97 97 96 96 95 94 93 92 92 91 89 89
43 46 51 58 68 78 86 92 93 92 92 94 95 97 98 98 97 97 95 95 94 95 95 96 95 95 96 97 99 100 100 101 102 102 102 102 102 101 101 100 99 99 98 97 97 96 95 94 93 93 92 91
38 39 40 43 48 55 66 78 88 94 97 98 98 99 101 102 102 102 101 100 99 98 98 99 99 98 98 98 99 100 101 102 103 103 104 104 105 104 103 102 102 101 100 99 98 97 96 96 95 94 93 92

ECMWFFLT2_500_spd_039.txt.gz
Wind_Speed
73 73 74 75 76 77 79 80 81 83 85 85 83 81 79 78 78 78 79 80 78 76 74 73 71 68 68 70 71 70 69 70 69 69 68 66 64 64 65 67 68 68 68 68 68 66 63 63 63 62 61 59
73 74 75 76 77 78 80 81 80 81 83 85 85 84 82 82 82 81 81 81 81 80 79 78 76 75 73 71 72 71 71 72 72 70 69 68 68 67 65 65 68 70 70 70 69 69 66 63 63 63 62 61
72 74 75 76 77 78 79 80 81 80 80 81 83 84 83 83 84 83 82 82 82 82 82 81 80 78 77 75 75 74 73 73 73 73 71 68 68 70 69 67 67 68 71 71 71 70 69 66 63 63 63 63
72 72 74 76 76 77 77 78 79 79 79 79 80 82 83 83 84 84 83 82 81 82 82 82 81 80 78 77 77 76 75 74 73 74 73 70 69 69 70 71 70 68 69 71 72 72 71 69 66 64 63 63
71 72 73 75 76 77 77 77 78 78 79 79 80 82 83 83 83 84 84 83 82 81 81 81 81 80 79 78 77 76 76 75 75 74 73 71 71 71 70 71 72 71 69 70 71 73 72 71 69 66 64 63
71 72 73 75 76 77 77 78 78 79 80 80 81 82 83 83 83 84 84 84 83 82 81 80 80 79 79 79 77 76 76 76 75 75 74 72 71 72 71 70 71 71 71 70 69 71 73 73 72 69 66 63
70 71 72 74 76 76 77 78 79 80 81 81 82 82 83 84 84 84 85 84 84 82 81 80 79 78 78 78 77 75 75 76 75 74 74 74 73 72 72 71 70 70 71 71 70 69 71 72 73 73 70 67
70 71 72 73 75 76 77 77 78 79 80 81 82 82 82 83 84 85 85 84 84 83 81 80 78 78 77 76 77 76 75 74 74 73 73 73 73 72 73 73 72 71 71 72 72 71 71 71 72 73 73 71
71 71 71 73 75 76 76 77 77 78 79 80 82 82 81 82 84 84 84 84 84 83 82 81 79 78 76 75 75 75 75 74 73 72 72 72 71 69 70 71 71 73 73 73 74 74 73 72 73 73 73 73
71 71 72 73 74 76 76 76 77 78 79 80 81 81 81 82 82 83 83 83 83 83 82 81 80 78 76 75 74 74 74 74 73 71 70 71 68 64 64 63 62 67 72 72 73 75 75 74 74 73 72 72
72 72 72 73 75 76 77 77 78 79 80 80 81 81 81 82 82 82 82 82 82 82 82 81 81 80 78 76 74 73 73 73 73 72 70 68 67 65 64 62 60 63 68 71 71 71 73 74 75 75 73 71
71 73 74 74 75 76 78 79 80 81 81 81 82 81 81 81 81 81 81 81 81 81 81 81 81 81 80 78 76 74 73 72 72 72 71 69 69 70 69 67 67 66 65 69 71 71 70 71 73 75 75 73
69 71 73 75 77 78 79 80 81 82 82 82 82 81 81 81 81 81 81 80 80 80 80 80 81 80 80 79 78 76 74 73 71 71 72 71 71 73 72 71 72 70 67 66 69 73 73 72 72 73 73 74
70 71 72 74 76 78 80 81 81 82 82 82 82 82 82 81 81 81 81 80 80 79 79 80 80 80 80 80 79 78 76 74 73 72 72 72 73 74 74 74 74 73 70 66 66 70 73 75 76 75 74 74
71 72 72 73 75 77 79 81 82 82 82 82 82 83 83 83 83 82 81 81 81 80 80 80 80 80 80 80 80 80 78 76 75 74 73 73 73 74 74 75 76 75 73 69 68 69 68 69 74 77 78 77
69 72 73 74 74 75 77 79 81 82 82 82 82 82 83 84 85 84 83 82 82 82 81 81 81 81 81 81 81 81 80 79 77 77 76 75 74 75 75 76 77 77 77 74 71 68 63 62 65 71 76 77
63 68 72 74 75 75 75 77 78 80 81 82 83 83 83 83 84 85 85 85 84 83 83 82 82 82 82 82 82 82 82 81 80 79 78 78 77 76 76 76 78 79 78 78 76 71 66 62 61 64 69 74
54 61 67 71 74 75 75 75 76 77 78 80 82 83 83 83 84 84 85 86 86 85 85 84 83 83 83 83 83 83 83 83 82 82 81 80 79 78 78 77 78 79 80 80 78 75 71 66 64 65 65 69
46 51 59 66 71 75 76 77 77 77 77 78 79 80 82 83 84 84 84 85 86 86 86 86 85 85 84 84 84 84 84 84 83 83 83 83 82 81 80 80 79 79 80 80 79 77 74 68 66 67 67 68
43 44 49 55 63 70 75 78 79 79 79 79 79 79 79 80 82 83 84 85 86 87 87 87 87 87 87 86 85 85 84 84 84 84 84 84 84 83 82 82 81 80 80 79 79 78 77 72 68 68 69 71
45 44 44 46 51 59 67 73 78 80 80 80 80 80 80 79 80 81 82 83 85 87 87 87 87 87 88 88 87 86 85 85 85 85 85 85 86 86 85 84 83 82 81 80 80 80 80 78 74 70 71 74
43 44 44 44 45 48 54 62 70 76 79 81 81 81 82 82 81 80 80 81 83 85 86 87 88 88 88 88 89 88 88 87 86 86 86 86 86 87 87 86 85 85 84 82 82 82 82 82 80 76 75 77
42 42 42 43 45 45 46 50 56 64 72 78 81 82 82 83 83 82 81 81 82 83 84 85 87 88 88 89 89 89 90 89 89 88 88 87 87 87 87 87 87 87 86 85 84 83 84 84 83 81 79 79
43 42 41 42 43 44 44 44 45 49 58 67 75 80 82 83 84 84 83 82 82 82 83 83 84 86 87 89 89 90 90 91 91 91 90 89 89 88 88 88 87 88 88 88 86 85 85 86 85 83 81 81
45 43 42 41 42 43 43 42 41 41 44 51 61 71 78 82 83 84 84 84 84 83 83 83 84 84 86 87 89 90 91 91 92 92 92 92 91 90 89 89 88 88 89 89 88 87 86 87 87 85 83 83
45 44 43 42 41 40 40 40 39 39 39 41 46 54 63 72 79 83 84 85 85 85 85 84 84 85 86 86 87 89 90 91 92 92 93 93 93 92 92 91 90 90 90 89 89 89 88 88 87 88 87 84
43 42 42 41 40 38 37 37 38 38 38 38 39 42 47 55 64 73 80 84 86 86 87 86 85 85 85 87 87 87 88 90 91 92 93 94 94 94 94 93 92 92 92 91 90 91 90 88 88 90 90 87
40 39 39 39 37 36 35 35 36 37 37 38 38 38 39 42 48 55 65 73 81 85 87 88 87 86 86 86 87 87 87 87 89 92 93 94 94 95 95 95 94 94 94 93 93 92 91 90 90 91 92 92
36 35 35 35 34 33 33 33 34 35 36 36 37 38 38 40 41 44 48 55 65 74 81 86 89 89 88 87 87 88 88 87 88 89 91 93 94 95 96 96 96 96 95 95 95 95 93 92 92 91 92 96
33 31 31 30 30 30 30 31 32 33 33 34 35 37 38 40 41 42 43 44 49 56 65 75 83 88 90 90 89 89 89 89 89 89 89 91 93 94 96 96 97 96 97 97 97 97 96 95 94 93 93 95
33 30 28 27 26 26 26 27 29 30 32 32 33 34 36 38 40 41 42 43 44 46 50 57 66 76 84 89 91 91 89 89 89 90 90 90 91 93 95 96 97 97 97 98 98 98 98 98 97 96 95 96

ECMWFFLT2_500_spd_042.txt.gz
Wind_Speed
86 85 84 83 83 81 80 77 75 74 74 75 76 77 77 76 72 70 71 72 70 68 69 71 73 76 77 76 73 71 71 72 73 74 74 74 73 70 67 69 72 74 73 72 70 68 68 67 66 64 62 61
86 85 85 84 83 83 82 81 79 78 77 78 79 80 82 81 79 77 72 71 71 68 67 68 71 72 73 76 77 75 70 68 69 73 75 75 76 74 70 67 68 70 73 74 73 71 70 70 68 67 65 64
85 85 84 84 84 83 83 82 81 80 80 81 81 83 85 84 85 86 80 74 73 72 70 69 71 72 72 72 75 77 76 71 67 68 72 75 75 75 73 70 69 68 69 71 73 72 73 74 71 69 68 67
84 85 84 83 84 84 83 83 83 81 81 82 83 84 86 87 88 90 90 85 79 76 73 70 69 70 71 71 73 76 78 77 72 68 67 69 71 72 73 72 72 72 70 69 70 72 73 75 76 72 70 69
80 84 85 84 83 83 84 83 84 84 83 82 82 84 86 88 90 91 94 95 91 85 81 76 71 69 68 67 69 74 78 79 77 74 70 68 68 68 69 71 72 73 74 71 69 69 70 72 76 76 73 71
73 80 84 85 84 83 84 84 84 84 85 85 83 83 85 87 89 90 93 97 98 94 91 88 83 77 72 68 67 70 76 79 78 77 77 75 72 70 68 68 69 71 74 75 72 69 69 70 71 74 75 73
66 73 80 84 85 84 84 84 85 85 85 86 86 85 84 85 87 89 91 93 96 96 94 91 90 88 84 79 73 71 73 76 75 73 74 76 75 73 71 69 68 68 70 75 75 72 71 71 70 71 74 75
60 66 73 79 83 84 85 85 85 86 86 86 86 87 87 86 86 87 89 90 91 93 93 90 88 88 88 87 83 79 77 76 75 69 68 72 73 71 71 70 68 66 67 70 74 75 73 72 72 71 71 73
55 60 65 72 78 81 83 84 85 86 87 87 86 87 88 89 88 86 86 88 89 90 91 90 88 87 87 88 87 86 83 80 77 71 67 68 71 70 67 67 68 67 67 64 66 72 74 73 73 74 73 71
50 55 59 64 70 76 79 81 83 84 86 88 88 88 88 89 91 90 88 87 87 88 90 91 89 87 86 87 87 87 87 85 82 78 74 70 71 72 70 70 70 70 70 65 62 66 72 73 73 74 76 74
46 50 55 59 63 69 74 77 79 81 83 86 88 89 89 89 91 92 93 90 88 86 87 89 91 90 87 87 87 87 88 89 87 85 82 78 77 77 77 77 75 72 72 70 69 69 71 74 74 73 74 75
43 46 51 55 59 63 69 73 76 78 80 83 85 87 89 91 92 92 93 93 92 90 87 86 89 92 91 89 88 88 88 89 90 89 87 85 84 82 80 80 78 75 72 72 72 72 74 76 75 74 74 74
40 42 46 50 55 60 65 69 73 76 78 80 82 84 86 89 91 93 93 93 93 93 92 89 88 90 92 91 91 90 90 88 89 89 88 87 87 85 83 81 80 78 75 73 71 71 73 76 77 75 76 76
38 38 40 44 49 55 61 66 70 74 76 78 80 82 84 85 88 90 92 94 94 93 93 93 92 90 91 92 92 91 91 90 89 88 88 88 87 87 85 83 81 79 77 74 70 68 69 72 74 74 75 76
39 38 37 39 43 49 55 61 67 71 74 76 78 81 82 84 85 87 89 92 94 94 93 93 94 93 93 92 92 91 90 91 90 88 88 87 87 86 86 84 82 80 78 75 73 70 68 66 66 67 69 71
44 41 39 38 40 43 48 54 60 68 73 76 77 79 81 83 84 85 86 88 91 93 93 93 93 93 94 94 93 92 91 90 90 90 88 87 86 85 84 84 83 81 78 77 76 76 73 68 64 62 64 68
47 46 43 40 39 40 44 48 53 60 68 74 78 79 81 83 84 84 84 86 87 89 91 92 92 92 92 92 93 93 92 91 91 90 89 88 87 85 84 83 83 82 80 79 79 79 77 73 69 64 63 68
49 49 47 44 41 40 42 46 49 53 59 67 75 79 81 83 85 86 85 84 85 86 88 89 91 91 91 91 91 91 92 91 90 90 90 89 87 86 84 83 83 82 81 80 79 78 76 75 74 68 63 65
50 50 50 48 46 43 42 44 47 50 53 58 65 73 80 83 85 86 87 87 85 85 85 86 88 90 91 91 90 90 90 90 90 90 90 89 88 86 85 84 83 83 82 81 78 77 76 76 78 72 65 65
52 52 51 49 48 46 45 45 46 48 51 54 56 62 71 79 84 86 87 88 87 86 86 85 86 87 88 90 90 90 89 89 89 89 89 89 89 87 86 85 84 83 83 83 80 79 78 78 79 78 70 63
53 53 52 50 49 47 47 47 47 46 48 52 53 54 59 68 77 84 86 87 87 87 87 87 86 85 86 87 89 90 90 89 88 88 88 89 89 88 87 86 85 84 84 84 83 83 83 80 77 79 77 69
55 54 53 52 50 47 46 46 48 47 45 47 50 52 53 56 63 74 82 86 87 87 87 88 88 86 86 86 87 89 90 90 89 88 88 88 89 89 88 87 86 85 85 86 85 85 87 86 79 76 78 78
56 55 53 51 50 48 45 43 45 47 45 43 45 48 51 51 53 58 68 78 85 87 87 87 88 88 87 87 87 88 89 90 90 89 88 87 88 89 89 88 87 87 86 86 87 87 88 90 87 81 79 78
57 56 54 50 47 45 44 41 41 43 44 42 41 42 46 48 48 49 53 62 73 81 86 87 88 89 89 88 87 87 88 89 90 90 90 88 88 89 90 90 89 88 88 87 87 88 90 91 91 89 86 81
58 56 54 50 44 40 39 39 38 38 39 40 38 38 40 44 45 45 46 50 58 68 78 84 87 88 89 89 88 88 88 89 90 90 90 90 89 88 89 90 91 90 90 89 88 89 90 92 92 93 93 89
58 57 54 50 44 38 33 33 34 34 35 35 35 34 35 39 43 44 44 45 47 54 63 74 82 86 89 89 89 88 87 88 89 90 90 91 90 90 89 89 91 91 91 91 90 90 90 91 93 94 95 95
59 57 54 50 44 38 32 29 29 29 30 30 31 31 32 34 38 42 43 43 43 44 49 57 67 77 84 88 89 89 88 88 88 89 90 91 91 91 91 90 90 91 92 92 92 91 91 91 93 94 95 96
60 57 54 50 44 38 32 26 24 25 25 26 28 29 30 31 34 36 39 41 42 41 42 45 51 60 71 80 87 90 90 89 88 88 89 90 92 92 92 92 92 92 92 93 93 93 93 93 93 94 95 97
61 57 54 49 43 38 33 27 21 21 22 23 25 27 28 29 30 32 35 38 40 41 41 41 42 46 54 65 77 85 89 90 90 89 88 89 91 92 93 93 93 93 93 93 94 93 93 94 94 94 95 97
60 57 53 49 43 36 32 28 22 19 20 21 23 25 27 27 28 30 31 34 37 40 41 42 42 42 44 49 59 70 81 88 91 91 90 90 89 91 93 94 93 93 94 94 95 95 94 94 95 94 95 96
60 56 53 49 44 37 31 28 24 20 19 20 22 23 24 25 26 28 29 31 33 36 38 41 43 43 43 44 47 53 64 76 86 91 93 93 91 90 91 93 94 93 94 95 96 96 96 96 95 95 95 96

ECMWFFLT2_500_spd_045.txt.gz
Wind_Speed
66 61 59 61 65 68 74 83 90 92 89 87 88 88 87 84 81 81 81 82 83 86 87 83 75 69 67 67 69 69 70 71 70 71 72 70 69 71 73 73 74 74 74 73 73 73 72 70 68 68 67 66
67 62 58 57 60 64 69 76 85 92 92 89 88 89 89 88 85 84 84 84 85 86 88 90 88 85 80 74 72 71 70 70 70 69 70 72 70 69 72 73 72 72 73 75 75 74 74 74 72 70 69 68
67 62 57 55 56 59 65 71 77 86 92 92 89 89 90 90 89 88 87 87 86 87 88 89 89 91 88 80 78 80 79 76 73 71 69 70 70 69 70 72 73 74 74 76 77 77 75 76 76 73 71 71
69 62 57 54 54 55 59 66 72 79 87 93 92 90 90 92 92 92 91 89 85 84 86 84 79 78 80 78 78 81 82 82 79 77 74 71 70 69 68 70 73 74 75 76 77 78 77 76 78 78 74 72
70 64 57 53 52 52 54 60 68 74 80 87 93 93 92 92 94 96 96 93 88 83 80 77 70 69 76 79 79 80 81 81 80 79 78 76 73 70 67 65 69 73 74 75 75 76 76 75 76 79 80 76
71 66 58 53 51 51 51 54 61 69 75 81 88 92 93 94 95 97 99 99 95 89 84 79 72 71 78 82 80 79 80 81 80 79 79 78 76 75 72 65 62 67 72 74 74 74 74 74 74 76 80 82
72 68 60 54 51 50 50 51 55 63 71 77 82 88 92 94 96 98 100 100 98 94 91 87 80 75 79 83 82 79 78 80 81 81 80 78 77 75 75 72 64 62 65 69 72 74 75 75 77 76 76 78
71 69 63 55 51 50 49 49 51 57 65 72 78 83 89 93 95 98 100 101 100 96 93 92 89 82 78 80 82 82 80 81 82 81 80 79 77 74 73 74 71 64 61 62 65 70 73 75 76 78 76 73
71 69 65 57 52 49 48 48 49 53 58 66 73 79 85 90 93 96 99 101 102 102 97 94 96 92 83 80 80 80 81 83 83 80 76 76 76 74 72 72 72 70 65 61 61 62 66 70 73 75 77 74
70 70 66 59 53 49 49 48 48 49 54 60 67 74 80 86 91 94 97 100 102 106 104 97 96 97 91 85 83 81 81 83 84 81 76 73 73 72 72 72 71 70 69 67 65 63 62 65 69 71 73 74
70 71 69 63 55 50 48 48 47 47 49 55 61 68 74 81 87 92 95 98 100 104 108 105 99 99 96 88 86 85 83 82 85 85 81 77 75 73 70 70 72 69 66 68 70 69 68 66 67 68 70 72
71 72 72 67 60 53 48 47 47 47 47 50 55 62 68 75 82 89 93 95 98 101 105 109 106 102 100 94 89 87 86 83 84 87 84 79 77 76 72 66 67 69 66 66 70 73 73 72 70 68 70 71
72 72 72 70 65 58 51 47 47 47 47 47 50 56 63 69 75 82 90 93 97 99 102 106 109 107 105 101 95 91 90 86 84 85 85 82 78 76 75 68 62 65 68 67 66 68 69 69 67 65 66 69
72 72 71 70 67 61 55 50 48 47 47 47 48 51 57 63 69 75 83 90 95 98 100 103 107 108 108 107 103 99 96 93 88 84 83 83 81 78 77 74 68 63 65 67 65 64 64 63 62 61 60 62
70 71 71 70 67 62 57 52 50 48 47 48 48 49 52 57 64 70 75 83 91 96 98 100 104 107 108 108 107 105 102 100 95 90 85 82 81 82 81 80 77 71 66 67 68 65 64 64 64 63 62 59
68 69 70 70 68 64 58 53 50 49 48 48 49 49 50 53 59 65 70 75 83 91 96 99 101 104 107 108 107 107 107 105 103 99 94 88 82 81 83 83 83 79 73 69 70 70 67 68 68 67 65 63
67 67 69 70 69 66 60 55 50 48 47 47 48 49 49 51 55 60 66 71 75 83 91 97 100 101 104 107 107 107 108 107 106 104 101 97 92 85 83 83 84 84 80 75 73 73 73 71 71 70 67 66
66 67 68 69 70 68 64 58 52 48 47 46 47 49 49 50 53 57 61 66 70 76 84 91 97 100 101 103 106 107 108 108 107 106 104 101 99 95 89 85 84 86 86 83 78 77 78 76 74 74 71 68
66 67 68 69 70 69 67 62 55 50 48 46 45 47 49 50 52 55 58 62 66 71 77 84 91 97 100 101 103 105 106 107 107 106 105 104 101 100 97 92 88 86 87 87 85 80 80 82 80 78 77 73
66 67 67 68 70 70 69 66 59 53 50 48 45 44 46 50 52 54 56 59 62 66 71 78 85 91 96 100 102 103 104 105 106 106 105 105 104 102 101 99 96 92 87 86 88 85 82 83 82 81 81 80
66 66 67 68 69 70 69 67 63 56 52 49 46 43 43 46 50 54 55 56 58 61 65 70 78 85 90 95 99 101 103 104 104 105 104 104 105 104 103 101 101 100 95 89 88 88 86 85 84 82 79 79
66 66 67 68 69 69 69 67 64 58 53 50 47 43 40 40 45 51 54 54 55 56 59 63 69 78 84 89 93 98 101 103 104 104 103 102 103 104 103 103 102 103 102 98 92 90 89 88 87 86 82 78
66 66 67 68 68 69 69 68 65 60 54 50 46 42 38 36 38 45 49 51 52 52 54 57 61 68 77 84 88 92 96 100 102 103 103 101 100 101 102 102 102 102 104 103 100 96 93 90 88 86 86 83
65 65 66 67 68 68 68 67 65 61 56 50 46 41 37 34 33 38 43 46 47 48 49 52 56 59 66 75 83 88 91 95 98 101 102 102 100 99 100 100 101 101 102 102 102 100 97 95 92 88 85 85
64 64 64 65 66 66 66 65 64 61 57 51 46 41 35 32 30 32 35 38 41 43 44 46 49 53 55 62 72 82 88 91 94 97 99 101 101 100 99 99 99 99 99 100 100 100 98 96 95 93 88 86
63 63 63 63 64 64 65 63 62 59 55 51 46 40 35 30 27 28 30 32 34 37 39 40 42 47 50 52 57 67 79 86 90 92 95 98 99 100 99 98 98 99 98 98 98 98 97 95 93 93 91 89
62 62 62 62 62 63 63 62 60 57 53 49 45 40 34 29 26 25 27 29 31 33 34 36 38 41 46 48 49 53 63 76 85 90 92 94 96 98 99 98 98 98 98 97 97 97 95 94 92 91 91 90
61 61 61 61 61 61 61 60 58 56 51 47 44 40 35 30 27 25 26 28 30 31 32 34 35 38 41 45 47 48 51 59 72 84 90 93 94 96 97 97 97 97 97 97 96 97 96 95 92 90 90 89
60 60 60 61 61 60 60 60 58 54 50 46 42 39 35 31 28 27 27 28 29 30 31 32 33 34 37 41 44 46 47 49 56 68 81 90 93 94 95 96 97 97 97 97 96 96 97 97 95 92 91 89
60 59 59 59 59 59 60 60 57 53 49 46 42 38 35 32 29 28 28 28 28 28 29 29 31 32 33 37 40 43 44 45 47 53 64 78 88 94 95 95 96 96 96 97 97 96 96 97 98 95 92 91
59 58 58 58 58 58 58 58 56 53 49 45 42 38 35 32 30 29 28 28 28 28 28 28 28 30 31 33 36 39 42 44 45 46 50 59 73 87 94 96 96 96 96 97 97 97 96 97 98 97 95 94